Weather History for Hartsville, SC

Change the Weather History Date:

Thursday, April 24, 2014

  Actual Average (KFLO) Record (KFLO)
Temperature  
Mean Temperature 64 °F 65 °F  
Max Temperature 77 °F 78 °F 92 °F (1976)
Min Temperature 51 °F 53 °F 35 °F (1982)
Degree Days  
Heating Degree Days 1 3  
Month to date heating degree days 110  
Since 1 July heating degree days 2486  
Cooling Degree Days 0 3  
Month to date cooling degree days 50  
Year to date cooling degree days 74  
Growing Degree Days 14 (Base 50)    
Moisture  
Dew Point 37 °F    
Average Humidity 38    
Maximum Humidity 77    
Minimum Humidity 22    
Precipitation  
Precipitation 0.00 in 0.09 in 0.41 in (1995)
Month to date precipitation 2.10  
Year to date precipitation 11.58  
Sea Level Pressure  
Sea Level Pressure 30.05 in    
Wind  
Wind Speed 8 mph (East)    
Max Wind Speed 14 mph    
Max Gust Speed 18 mph    
Visibility 10 miles    
Events      
T = Trace of Precipitation, MM = Missing Value Source: NWS Daily Summary

Daily Weather History Graph

Daily Weather History Graph

Search for Another Location

Airport:

Trip Planner

Search our weather history database for the weather conditions in past years. The results will help you decide how hot, cold, wet, or windy it might be!

Date:

Astronomy

Apr. 24, 2014 Rise Set
Actual Time 6:38 AM EDT 7:59 PM EDT
Civil Twilight 6:11 AM EDT 8:25 PM EDT
Nautical Twilight 5:40 AM EDT 8:57 PM EDT
Astronomical Twilight 5:07 AM EDT 9:30 PM EDT
Moon 3:35 AM EDT (4/24) 3:25 PM EDT (4/24)
Length of Visible Light 14h 13m
Length of Day
13h 21m
Waning Crescent, 24% of the Moon is Illuminated
Apr 24
Waning Crescent
Apr 29
New
May 6
First Quarter
May 14
Full
May 21
Last Quarter

Hourly Weather History & Observations

Time (EDT) Temp. Dew Point Humidity Pressure Visibility Wind Dir Wind Speed Gust Speed Precip Events Conditions
12:15 AM 64.4 °F 30.2 °F 28% 29.98 in 10.0 mi North 5.8 mph - N/A   Clear
12:35 AM 62.6 °F 30.2 °F 30% 29.98 in 10.0 mi NNE 5.8 mph - N/A   Clear
12:55 AM 62.6 °F 32.0 °F 32% 29.99 in 10.0 mi NNE 10.4 mph - N/A   Clear
1:15 AM 62.6 °F 30.2 °F 30% 29.99 in 10.0 mi NE 10.4 mph - N/A   Clear
1:35 AM 60.8 °F 30.2 °F 31% 30.00 in 10.0 mi NE 10.4 mph - N/A   Clear
1:55 AM 60.8 °F 32.0 °F 34% 30.00 in 10.0 mi NE 10.4 mph - N/A   Clear
2:15 AM 60.8 °F 30.2 °F 31% 30.00 in 10.0 mi NNE 13.8 mph - N/A   Clear
2:35 AM 60.8 °F 30.2 °F 31% 30.00 in 10.0 mi NE 12.7 mph - N/A   Clear
2:55 AM 59.0 °F 30.2 °F 34% 30.00 in 10.0 mi NE 12.7 mph - N/A   Clear
3:15 AM 59.0 °F 30.2 °F 34% 30.00 in 10.0 mi NE 10.4 mph - N/A   Clear
3:35 AM 57.2 °F 30.2 °F 36% 30.01 in 10.0 mi NE 11.5 mph - N/A   Clear
3:55 AM 55.4 °F 32.0 °F 41% 30.01 in 10.0 mi NE 11.5 mph - N/A   Clear
4:15 AM 55.4 °F 30.2 °F 38% 30.02 in 10.0 mi NE 11.5 mph - N/A   Clear
4:35 AM 55.4 °F 32.0 °F 41% 30.01 in 10.0 mi NE 13.8 mph 18.4 mph N/A   Clear
4:55 AM 55.4 °F 32.0 °F 41% 30.02 in 10.0 mi NE 11.5 mph - N/A   Clear
5:15 AM 55.4 °F 32.0 °F 41% 30.03 in 10.0 mi NE 11.5 mph - N/A   Clear
5:35 AM 53.6 °F 32.0 °F 44% 30.04 in 10.0 mi NE 11.5 mph 16.1 mph N/A   Clear
5:55 AM 53.6 °F 32.0 °F 44% 30.05 in 10.0 mi NE 9.2 mph - N/A   Clear
6:15 AM 53.6 °F 32.0 °F 44% 30.06 in 10.0 mi NE 8.1 mph - N/A   Clear
6:35 AM 53.6 °F 32.0 °F 44% 30.07 in 10.0 mi ENE 9.2 mph - N/A   Clear
6:55 AM 51.8 °F 32.0 °F 47% 30.08 in 10.0 mi ENE 8.1 mph - N/A   Clear
7:15 AM 51.8 °F 33.8 °F 50% 30.09 in 10.0 mi ENE 8.1 mph - N/A   Clear
7:35 AM 53.6 °F 33.8 °F 47% 30.10 in 10.0 mi ENE 9.2 mph - N/A   Clear
7:55 AM 53.6 °F 33.8 °F 47% 30.10 in 10.0 mi ENE 10.4 mph - N/A   Clear
8:15 AM 55.4 °F 33.8 °F 44% 30.11 in 10.0 mi East 10.4 mph - N/A   Clear
8:35 AM 57.2 °F 35.6 °F 44% 30.12 in 10.0 mi ENE 8.1 mph - N/A   Clear
8:55 AM 59.0 °F 33.8 °F 39% 30.12 in 10.0 mi East 11.5 mph - N/A   Clear
9:15 AM 60.8 °F 33.8 °F 36% 30.13 in 10.0 mi ENE 13.8 mph - N/A   Clear
9:35 AM 62.6 °F 33.8 °F 34% 30.13 in 10.0 mi East 10.4 mph 17.3 mph N/A   Clear
9:55 AM 62.6 °F 33.8 °F 34% 30.13 in 10.0 mi East 11.5 mph - N/A   Clear
10:15 AM 62.6 °F 33.8 °F 34% 30.14 in 10.0 mi East 10.4 mph - N/A   Clear
10:35 AM 64.4 °F 32.0 °F 30% 30.14 in 10.0 mi East 10.4 mph 16.1 mph N/A   Clear
10:55 AM 64.4 °F 32.0 °F 30% 30.14 in 10.0 mi East 8.1 mph - N/A   Clear
11:15 AM 66.2 °F 33.8 °F 30% 30.13 in 10.0 mi NE 9.2 mph - N/A   Clear
11:35 AM 66.2 °F 32.0 °F 28% 30.13 in 10.0 mi ENE 6.9 mph - N/A   Clear
11:55 AM 68.0 °F 32.0 °F 26% 30.13 in 10.0 mi East 9.2 mph - N/A   Clear
12:15 PM 68.0 °F 33.8 °F 28% 30.12 in 10.0 mi NNE 3.5 mph - N/A   Clear
12:35 PM 69.8 °F 33.8 °F 27% 30.11 in 10.0 mi ENE 9.2 mph - N/A   Clear
12:55 PM 69.8 °F 33.8 °F 27% 30.10 in 10.0 mi East 8.1 mph - N/A   Clear
1:15 PM 71.6 °F 33.8 °F 25% 30.10 in 10.0 mi East 5.8 mph - N/A   Clear
1:35 PM 71.6 °F 33.8 °F 25% 30.09 in 10.0 mi East 5.8 mph - N/A   Clear
1:55 PM 71.6 °F 35.6 °F 27% 30.08 in 10.0 mi ENE 6.9 mph - N/A   Clear
2:15 PM 73.4 °F 35.6 °F 25% 30.07 in 10.0 mi SSE 3.5 mph - N/A   Clear
2:35 PM 73.4 °F 35.6 °F 25% 30.05 in 10.0 mi East 6.9 mph - N/A   Clear
2:55 PM 73.4 °F 35.6 °F 25% 30.04 in 10.0 mi East 6.9 mph - N/A   Clear
3:15 PM 75.2 °F 35.6 °F 24% 30.03 in 10.0 mi SE 6.9 mph - N/A   Clear
3:35 PM 75.2 °F 35.6 °F 24% 30.02 in 10.0 mi SE 3.5 mph - N/A   Clear
3:55 PM 77.0 °F 35.6 °F 22% 30.02 in 10.0 mi South 5.8 mph - N/A   Clear
4:15 PM 75.2 °F 35.6 °F 24% 30.01 in 10.0 mi South 3.5 mph - N/A   Clear
4:35 PM 75.2 °F 35.6 °F 24% 30.01 in 10.0 mi South 5.8 mph - N/A   Clear
4:55 PM 77.0 °F 37.4 °F 24% 30.01 in 10.0 mi SSW 4.6 mph - N/A   Clear
5:15 PM 77.0 °F 37.4 °F 24% 30.01 in 10.0 mi Calm Calm - N/A   Clear
5:35 PM 77.0 °F 39.2 °F 26% 30.01 in 10.0 mi SSE 5.8 mph - N/A   Clear
5:55 PM 77.0 °F 39.2 °F 26% 30.01 in 10.0 mi SSE 5.8 mph - N/A   Clear
6:15 PM 77.0 °F 41.0 °F 28% 30.01 in 10.0 mi South 6.9 mph - N/A   Clear
6:35 PM 77.0 °F 41.0 °F 28% 30.01 in 10.0 mi SSW 5.8 mph - N/A   Clear
6:55 PM 75.2 °F 42.8 °F 31% 30.01 in 10.0 mi South 4.6 mph - N/A   Clear
7:15 PM 73.4 °F 42.8 °F 33% 30.00 in 10.0 mi South 4.6 mph - N/A   Clear
7:35 PM 69.8 °F 44.6 °F 40% 30.00 in 10.0 mi Calm Calm - N/A   Clear
7:55 PM 68.0 °F 46.4 °F 46% 30.00 in 10.0 mi Calm Calm - N/A   Clear
8:15 PM 66.2 °F 46.4 °F 49% 30.00 in 10.0 mi Calm Calm - N/A   Clear
8:35 PM 64.4 °F 48.2 °F 56% 30.01 in 10.0 mi SSE 9.2 mph - N/A   Clear
8:55 PM 66.2 °F 50.0 °F 56% 30.01 in 10.0 mi SSE 5.8 mph - N/A   Clear
9:15 PM 66.2 °F 48.2 °F 52% 30.02 in 10.0 mi SSE 5.8 mph - N/A   Clear
9:35 PM 64.4 °F 48.2 °F 56% 30.01 in 10.0 mi SSE 5.8 mph - N/A   Clear
9:55 PM 64.4 °F 50.0 °F 59% 30.01 in 10.0 mi SE 5.8 mph - N/A   Clear
10:15 PM 64.4 °F 50.0 °F 59% 30.01 in 10.0 mi SE 5.8 mph - N/A   Clear
10:35 PM 62.6 °F 51.8 °F 68% 30.01 in 10.0 mi SE 5.8 mph - N/A   Clear
10:55 PM 62.6 °F 51.8 °F 68% 30.02 in 10.0 mi SSE 5.8 mph - N/A   Clear
11:15 PM 62.6 °F 53.6 °F 72% 30.02 in 10.0 mi SSE 4.6 mph - N/A   Clear
11:35 PM 60.8 °F 53.6 °F 77% 30.01 in 10.0 mi SSE 6.9 mph - N/A   Clear
11:55 PM 60.8 °F 53.6 °F 77% 30.01 in 10.0 mi SSE 4.6 mph - N/A   Clear